| time (UTC) | temp F | wind direction | speed knots | gust knots | rain 1hr in | rain 24hr in | rain mn in | humidity % | barometer mb |
| 20260505152625 | 58 | 255 | 3.5 | 8.7 | 0.00 | 0.00 | 0.00 | 51 | 1008.3 |
| 20260505151621 | 59 | 176 | 3.5 | 7.8 | 0.00 | 0.00 | 0.00 | 49 | 1008.2 |
| 20260505150613 | 58 | 182 | 0.9 | 5.2 | 0.00 | 0.00 | 0.00 | 51 | 1008.2 |
| 20260505140625 | 57 | 112 | 0.0 | 1.7 | 0.00 | 0.00 | 0.00 | 58 | 1007.9 |
| 20260505124621 | 57 | 117 | 0.0 | 2.6 | 0.00 | 0.00 | 0.00 | 56 | 1007.4 |
| 20260505123616 | 57 | 117 | 0.0 | 2.6 | 0.00 | 0.00 | 0.00 | 56 | 1007.3 |
| 20260505122628 | 57 | 119 | 0.9 | 1.7 | 0.00 | 0.00 | 0.00 | 55 | 1007.1 |
| 20260505121619 | 57 | 119 | 0.0 | 1.7 | 0.00 | 0.00 | 0.00 | 56 | 1007.2 |
| 20260505120627 | 57 | 119 | 0.0 | 1.7 | 0.00 | 0.00 | 0.00 | 56 | 1007.1 |
| 20260505115613 | 57 | 119 | 0.9 | 2.6 | 0.00 | 0.00 | 0.00 | 55 | 1007.0 |
| 20260505114625 | 57 | 128 | 1.7 | 3.5 | 0.00 | 0.00 | 0.00 | 55 | 1007.0 |
| 20260505113618 | 58 | 153 | 0.0 | 2.6 | 0.00 | 0.00 | 0.00 | 54 | 1006.8 |
| 20260505112615 | 58 | 153 | 0.9 | 4.3 | 0.00 | 0.00 | 0.00 | 52 | 1006.8 |
| 20260505111628 | 59 | 175 | 0.9 | 1.7 | 0.00 | 0.00 | 0.00 | 51 | 1006.9 |
| 20260505110641 | 59 | 175 | 0.0 | 2.6 | 0.00 | 0.00 | 0.00 | 50 | 1006.9 |
| 20260505101612 | 59 | 194 | 0.9 | 3.5 | 0.00 | 0.00 | 0.00 | 50 | 1006.9 |
| 20260505100623 | 59 | 181 | 1.7 | 3.5 | 0.00 | 0.00 | 0.00 | 51 | 1006.9 |
| 20260505095628 | 60 | 181 | 1.7 | 4.3 | 0.00 | 0.00 | 0.00 | 51 | 1007.0 |
| 20260505094621 | 60 | 151 | 1.7 | 5.2 | 0.00 | 0.00 | 0.00 | 51 | 1007.0 |
| 20260505093615 | 60 | 190 | 2.6 | 6.1 | 0.00 | 0.00 | 0.00 | 50 | 1007.1 |
| 20260505092625 | 60 | 227 | 2.6 | 7.8 | 0.00 | 0.00 | 0.00 | 50 | 1007.0 |
| 20260505091614 | 60 | 247 | 1.7 | 7.0 | 0.00 | 0.00 | 0.00 | 50 | 1007.1 |
| 20260505090622 | 60 | 205 | 3.5 | 7.8 | 0.00 | 0.00 | 0.00 | 50 | 1007.1 |
| 20260505085644 | 60 | 181 | 3.5 | 7.0 | 0.00 | 0.00 | 0.00 | 49 | 1007.1 |
| 20260505084635 | 60 | 181 | 2.6 | 7.8 | 0.00 | 0.00 | 0.00 | 49 | 1007.0 |
| 20260505083623 | 60 | 161 | 3.5 | 7.8 | 0.00 | 0.00 | 0.00 | 49 | 1007.1 |
| 20260505082618 | 60 | 177 | 2.6 | 6.1 | 0.00 | 0.00 | 0.00 | 49 | 1007.1 |
| 20260505081630 | 60 | 201 | 3.5 | 8.7 | 0.00 | 0.00 | 0.00 | 50 | 1007.3 |
| 20260505080621 | 60 | 182 | 4.3 | 8.7 | 0.00 | 0.00 | 0.00 | 51 | 1007.3 |
| 20260505075628 | 60 | 206 | 3.5 | 8.7 | 0.00 | 0.00 | 0.00 | 52 | 1007.5 |
| 20260505074620 | 60 | 159 | 4.3 | 9.6 | 0.00 | 0.00 | 0.00 | 52 | 1007.6 |
| 20260505073631 | 60 | 186 | 4.3 | 8.7 | 0.00 | 0.00 | 0.00 | 52 | 1007.8 |
| 20260505072643 | 60 | 169 | 3.5 | 7.0 | 0.00 | 0.00 | 0.00 | 53 | 1007.9 |
| 20260505071620 | 61 | 173 | 3.5 | 7.8 | 0.00 | 0.00 | 0.00 | 53 | 1007.9 |
| 20260505070631 | 61 | 157 | 5.2 | 8.7 | 0.00 | 0.00 | 0.00 | 53 | 1007.9 |
| 20260505065614 | 61 | 165 | 3.5 | 7.0 | 0.00 | 0.00 | 0.00 | 53 | 1008.0 |
| 20260505064628 | 61 | 200 | 2.6 | 10.4 | 0.00 | 0.00 | 0.00 | 53 | 1008.0 |
| 20260505063623 | 61 | 150 | 6.1 | 14.8 | 0.00 | 0.00 | 0.00 | 52 | 1007.9 |
| 20260505062616 | 62 | 169 | 7.0 | 16.5 | 0.00 | 0.00 | 0.00 | 50 | 1007.8 |
| 20260505061626 | 63 | 209 | 6.1 | 9.6 | 0.00 | 0.00 | 0.00 | 47 | 1007.7 |
| 20260505060626 | 63 | 249 | 4.3 | 7.8 | 0.00 | 0.00 | 0.00 | 45 | 1007.5 |
| 20260505055648 | 64 | 247 | 3.5 | 6.1 | 0.00 | 0.00 | 0.00 | 44 | 1007.3 |
| 20260505054643 | 64 | 252 | 2.6 | 4.3 | 0.00 | 0.00 | 0.00 | 42 | 1007.1 |
| 20260505053614 | 64 | 197 | 0.9 | 3.5 | 0.00 | 0.00 | 0.00 | 41 | 1006.8 |
| 20260505052625 | 64 | 202 | 1.7 | 4.3 | 0.00 | 0.00 | 0.00 | 41 | 1006.8 |
| 20260505051619 | 65 | 190 | 2.6 | 7.0 | 0.00 | 0.00 | 0.00 | 40 | 1006.7 |
| 20260505050630 | 65 | 184 | 2.6 | 8.7 | 0.00 | 0.00 | 0.00 | 39 | 1006.6 |
| 20260505041628 | 66 | 202 | 2.6 | 5.2 | 0.00 | 0.00 | 0.00 | 35 | 1005.9 |
| 20260505040621 | 66 | 167 | 2.6 | 5.2 | 0.00 | 0.00 | 0.00 | 36 | 1005.7 |
| 20260505035631 | 65 | 234 | 0.9 | 3.5 | 0.00 | 0.00 | 0.00 | 37 | 1005.6 |
| 20260505034625 | 66 | 96 | 1.7 | 3.5 | 0.00 | 0.00 | 0.00 | 36 | 1005.4 |
| 20260505033635 | 67 | 96 | 1.7 | 5.2 | 0.00 | 0.00 | 0.00 | 35 | 1005.3 |
| 20260505032626 | 68 | 93 | 1.7 | 2.6 | 0.00 | 0.00 | 0.00 | 33 | 1005.1 |
| 20260505031642 | 69 | 202 | 0.0 | 2.6 | 0.00 | 0.00 | 0.00 | 32 | 1004.9 |
| 20260505030651 | 69 | 202 | 1.7 | 3.5 | 0.00 | 0.00 | 0.00 | 31 | 1004.8 |
| 20260505025612 | 69 | 202 | 1.7 | 6.1 | 0.00 | 0.00 | 0.00 | 31 | 1004.8 |
| 20260505024625 | 69 | 225 | 1.7 | 4.3 | 0.00 | 0.00 | 0.00 | 30 | 1004.7 |
| 20260505023620 | 70 | 207 | 2.6 | 5.2 | 0.00 | 0.00 | 0.00 | 30 | 1004.6 |
| 20260505022613 | 70 | 209 | 3.5 | 5.2 | 0.00 | 0.00 | 0.00 | 29 | 1004.5 |
| 20260505021624 | 71 | 202 | 1.7 | 4.3 | 0.00 | 0.00 | 0.00 | 28 | 1004.3 |
| 20260505020614 | 71 | 225 | 1.7 | 7.0 | 0.00 | 0.00 | 0.00 | 27 | 1004.3 |
| 20260505015635 | 72 | 217 | 4.3 | 7.0 | 0.00 | 0.00 | 0.00 | 27 | 1004.2 |
| 20260505014628 | 72 | 209 | 2.6 | 6.1 | 0.00 | 0.00 | 0.00 | 26 | 1004.2 |
| 20260505013618 | 73 | 224 | 3.5 | 7.8 | 0.00 | 0.00 | 0.00 | 26 | 1004.2 |
| 20260505012629 | 73 | 266 | 4.3 | 7.8 | 0.00 | 0.00 | 0.00 | 26 | 1004.2 |
| 20260505011623 | 73 | 208 | 2.6 | 7.0 | 0.00 | 0.00 | 0.00 | 26 | 1004.3 |
| 20260505010615 | 73 | 186 | 4.3 | 10.4 | 0.00 | 0.00 | 0.00 | 26 | 1004.3 |
| 20260505005617 | 73 | 174 | 3.5 | 8.7 | 0.00 | 0.00 | 0.00 | 26 | 1004.4 |
| 20260505004630 | 74 | 236 | 4.3 | 10.4 | 0.00 | 0.00 | 0.00 | 26 | 1004.3 |
| 20260505003625 | 74 | 198 | 5.2 | 9.6 | 0.00 | 0.00 | 0.00 | 24 | 1004.5 |
| 20260505002616 | 75 | 209 | 3.5 | 11.3 | 0.00 | 0.00 | 0.00 | 24 | 1004.6 |
| 20260505001627 | 75 | 262 | 6.1 | 11.3 | 0.00 | 0.00 | 0.00 | 23 | 1004.6 |
| 20260505000617 | 74 | 244 | 7.8 | 13.0 | 0.00 | 0.00 | 0.00 | 24 | 1004.6 |
| 20260504235621 | 75 | 266 | 8.7 | 12.2 | 0.00 | 0.00 | 0.00 | 24 | 1004.6 |
| 20260504234630 | 75 | 263 | 8.7 | 13.0 | 0.00 | 0.00 | 0.00 | 24 | 1004.6 |
| 20260504233639 | 75 | 244 | 7.0 | 13.0 | 0.00 | 0.00 | 0.00 | 25 | 1004.7 |
| 20260504232627 | 75 | 234 | 9.6 | 13.9 | 0.00 | 0.00 | 0.00 | 26 | 1004.7 |
| 20260504231619 | 74 | 259 | 10.4 | 16.5 | 0.00 | 0.00 | 0.00 | 25 | 1004.7 |
| 20260504230630 | 75 | 258 | 9.6 | 14.8 | 0.00 | 0.00 | 0.00 | 25 | 1004.7 |
| 20260504225613 | 75 | 246 | 10.4 | 15.6 | 0.00 | 0.00 | 0.00 | 26 | 1004.7 |
| 20260504224624 | 77 | 254 | 7.0 | 11.3 | 0.00 | 0.00 | 0.00 | 19 | 1004.7 |
| 20260504223619 | 76 | 284 | 4.3 | 12.2 | 0.00 | 0.00 | 0.00 | 19 | 1004.7 |
| 20260504222649 | 76 | 271 | 4.3 | 10.4 | 0.00 | 0.00 | 0.00 | 19 | 1004.7 |
| 20260504221620 | 76 | 204 | 5.2 | 10.4 | 0.00 | 0.00 | 0.00 | 19 | 1004.7 |
| 20260504220631 | 77 | 254 | 4.3 | 8.7 | 0.00 | 0.00 | 0.00 | 20 | 1004.8 |
| 20260504215619 | 76 | 252 | 6.1 | 11.3 | 0.00 | 0.00 | 0.00 | 19 | 1005.0 |
| 20260504214630 | 76 | 319 | 6.1 | 9.6 | 0.00 | 0.00 | 0.00 | 20 | 1005.2 |
| 20260504213617 | 76 | 268 | 3.5 | 9.6 | 0.00 | 0.00 | 0.00 | 20 | 1005.4 |
| 20260504212629 | 76 | 287 | 3.5 | 6.1 | 0.00 | 0.00 | 0.00 | 19 | 1005.6 |
| 20260504211621 | 75 | 153 | 1.7 | 8.7 | 0.00 | 0.00 | 0.00 | 20 | 1005.6 |
| 20260504210629 | 75 | 256 | 5.2 | 10.4 | 0.00 | 0.00 | 0.00 | 19 | 1005.8 |
| 20260504205629 | 75 | 246 | 3.5 | 7.8 | 0.00 | 0.00 | 0.00 | 21 | 1005.9 |
| 20260504204618 | 76 | 238 | 6.1 | 11.3 | 0.00 | 0.00 | 0.00 | 21 | 1006.0 |
| 20260504203630 | 75 | 309 | 1.7 | 8.7 | 0.00 | 0.00 | 0.00 | 22 | 1006.1 |
| 20260504202620 | 74 | 198 | 3.5 | 7.0 | 0.00 | 0.00 | 0.00 | 23 | 1006.1 |
| 20260504201631 | 75 | 248 | 6.1 | 9.6 | 0.00 | 0.00 | 0.00 | 23 | 1006.3 |
| 20260504200626 | 75 | 319 | 4.3 | 7.8 | 0.00 | 0.00 | 0.00 | 24 | 1006.3 |
| 20260504195627 | 74 | 257 | 6.1 | 12.2 | 0.00 | 0.00 | 0.00 | 23 | 1006.5 |
| 20260504194616 | 75 | 249 | 5.2 | 10.4 | 0.00 | 0.00 | 0.00 | 23 | 1006.5 |
| 20260504193645 | 74 | 206 | 0.9 | 6.1 | 0.00 | 0.00 | 0.00 | 25 | 1006.7 |
| 20260504192616 | 74 | 280 | 6.1 | 10.4 | 0.00 | 0.00 | 0.00 | 25 | 1006.8 |
| 20260504191626 | 74 | 250 | 5.2 | 9.6 | 0.00 | 0.00 | 0.00 | 25 | 1006.9 |
| 20260504190617 | 74 | 287 | 2.6 | 6.1 | 0.00 | 0.00 | 0.00 | 26 | 1007.0 |
| 20260504185618 | 73 | 269 | 0.9 | 9.6 | 0.00 | 0.00 | 0.00 | 28 | 1007.2 |
| 20260504184631 | 73 | 257 | 7.0 | 9.6 | 0.00 | 0.00 | 0.00 | 27 | 1007.2 |
| 20260504183620 | 73 | 255 | 5.2 | 7.8 | 0.00 | 0.00 | 0.00 | 27 | 1007.3 |
| 20260504182629 | 72 | 312 | 0.9 | 6.1 | 0.00 | 0.00 | 0.00 | 27 | 1007.6 |
| 20260504181618 | 72 | 236 | 5.2 | 8.7 | 0.00 | 0.00 | 0.00 | 27 | 1007.7 |
| 20260504180634 | 73 | 230 | 4.3 | 7.8 | 0.00 | 0.00 | 0.00 | 27 | 1007.8 |
| 20260504175615 | 72 | 63 | 1.7 | 3.5 | 0.00 | 0.00 | 0.00 | 27 | 1008.0 |
| 20260504174623 | 71 | 215 | 0.9 | 6.1 | 0.00 | 0.00 | 0.00 | 28 | 1008.0 |
| 20260504173631 | 71 | 250 | 2.6 | 7.8 | 0.00 | 0.00 | 0.00 | 28 | 1008.0 |
| 20260504172617 | 71 | 238 | 3.5 | 7.0 | 0.00 | 0.00 | 0.00 | 29 | 1008.1 |
| 20260504171628 | 71 | 272 | 5.2 | 7.8 | 0.00 | 0.00 | 0.00 | 29 | 1008.2 |
| 20260504170615 | 71 | 182 | 3.5 | 8.7 | 0.00 | 0.00 | 0.00 | 29 | 1008.2 |